Regional Weather Roundup
Issued by NWS

Home | Current Version | Previous Version | Text Only | Print | Product List | Glossary Off
Versions: 1 2 3 4 5 6 7 8 9 10 11 12 13 14 15 16 17 18 19 20 21 22 23 24 25 26 27 28 29 30 31 32 33 34 35 36 37 38 39 40 41 42 43 44 45 46 47 48 49 50

000
ASUS45 KTFX 300119
RWRMT
MONTANA HOURLY WEATHER ROUNDUP
NATIONAL WEATHER SERVICE GREAT FALLS MT
719 PM MDT TUE JUL 29 2014

NOTE: "FAIR" INDICATES FEW OR NO CLOUDS BELOW 12000 FEET WITH NO
SIGNIFICANT WEATHER AND/OR OBSTRUCTIONS TO VISIBILITY.

* THESE STATIONS ARE NOT UNDER NWS QUALITY CONTROL. THEY DO NOT
   REPORT WEATHER SUCH AS PRECIPITATION OR FOG.

MTZ001>007-043-300200-
WEST OF THE DIVIDE
CITY           SKY/WX    TMP DP  RH WIND       PRES   REMARKS
KALISPELL      PTCLDY    90  48  24 E15       30.05S
MISSOULA       PTCLDY    93  27   9 N14       30.05F
BUTTE          CLOUDY    81  39  22 E5        30.23F
MULLAN PASS    PTCLDY    81  39  22 VRB3      30.28F
* LINCOLN      N/A       84  43  24 E3G10      N/A
* LOOKOUT PASS N/A       83  45  26 S5         N/A
* POLSON       N/A       92  38  15 NW3        N/A
* RONAN APT    PTCLDY    93  46  20 N/A        N/A
* SEELEY LAKE  N/A       88  39  18 E3G12      N/A
* THOMP F APT  PTCLDY    68  46  45 W6G12      N/A
* YAAK HILL    N/A      102  44  14 W2         N/A
$$

MTZ008-052>055-300200-
SOUTHWEST MONTANA
CITY           SKY/WX    TMP DP  RH WIND       PRES   REMARKS
BOZEMAN        MOCLDY    77  48  36 NE9       30.16S
DILLON         CLOUDY    79  45  30 NE5       30.19F
W YELLOWSTONE  FOG       55  52  90 SE9G18    30.36S
* THREE FORKS  CLOUDY    84  54  36 S6         N/A
* BOULDER HILL N/A       76  41  29 N10G16     N/A
* MONIDA PASS  N/A       58  49  72 NE6G13     N/A
* RAYNOLDS PAS N/A       69  48  47 SE16G22    N/A
* WHITEHALL    N/A       88  46  23 N7G13      N/A
* WISE RIVER   N/A       81  41  24 NE5G12     N/A
$$

MTZ009>010-012-014-046-048-049-054-300200-
EAST SLOPES AND CENTRAL MONTANA
CITY           SKY/WX    TMP DP  RH WIND       PRES   REMARKS
CUT BANK       MOCLDY    88  41  19 SE10      30.15F
GREAT FALLS    PTCLDY    90  39  17 SE6       30.12F
HELENA         CLOUDY    84  45  26 SE7       30.13F
MALMSTROM AFB  PTCLDY    90  36  15 SE10      30.12F
* CONRAD       PTCLDY    86  54  33 N/A        N/A
* DEARBORN     N/A       89  34  14 NE6G11     N/A
* EAST GLACIER N/A       79  46  31 SW6        N/A
* MONARCH      N/A       81  41  24 NE5        N/A
* ROGERS PASS  N/A       79  43  28 S2         N/A
* SAINT MARY   N/A       81  41  24 SE3G10     N/A
* SWEET GRASS  N/A       90  38  16 SE6G15     N/A
* WHITE SULPH  N/A       76  41  29 NE6        N/A
$$

MTZ011-013-016-021-035-040-045-047-050-051-300200-
NORTH CENTRAL MONTANA
CITY           SKY/WX    TMP DP  RH WIND       PRES   REMARKS
HAVRE          CLEAR     91  43  19 NE18      30.09S
LEWISTOWN      PTCLDY    88  37  16 E9        30.19F
* FORT BENTON  PTCLDY    91  37  15 E5         N/A
* CHESTER      N/A       90  34  14 E4G9       N/A
* DENTON       N/A       88  43  21 E10G17     N/A
* GEYSER       N/A       85  45  25 E7G16      N/A
* JUDITH GAP   N/A       81  46  29 SE10       N/A
* LOMA         N/A       91  37  15 NE6G15     N/A
$$

MTZ017>020-022>027-061-062-300200-
NORTHEAST MONTANA
CITY           SKY/WX    TMP DP  RH WIND       PRES   REMARKS
GLASGOW        CLEAR     88  45  22 E12       30.13F
GLENDIVE       PTCLDY    82  45  27 N13       30.16S
JORDAN         CLEAR     88  39  18 NE15      30.14S
SIDNEY         PTCLDY    81  52  37 NE12      30.16S
WOLF POINT     CLEAR     88  46  23 NE13      30.14S
* BEAVER HILL  N/A       81  46  29 N11G24     N/A
* CIRCLE       N/A       85  48  28 N8G13      N/A
* LINDSAY DVD  N/A       81  45  28 NE12G17    N/A
$$

MTZ028>042-056>058-300200-
SOUTHCENTRAL AND SOUTHEAST MONTANA
CITY           SKY/WX    TMP DP  RH WIND       PRES   REMARKS
BAKER          CLEAR     82  39  22 N14       30.16F
BILLINGS       PTCLDY    86  46  25 E13       30.15F
LIVINGSTON     MOCLDY    84  45  26 E14       30.16F
MILES CITY     CLEAR     88  43  21 NE13      30.13F
* LAUREL APT   MOCLDY    86  52  31 N/A        N/A
* ROUNDUP APT  CLEAR     88  37  16 NE10       N/A
* ALZADA       N/A       81  47  30 N4         N/A
* HYSHAM       N/A       85  43  23 E10G16     N/A
* LAME DEER    N/A       79  39  24 NE11G17    N/A
* REED POINT   N/A       84  51  32 E8G13      N/A
* ROSCOE HILL  N/A       75  44  33 E9G14      N/A
$$

REGIONAL REPORTS...DAKOTAS
CITY           SKY/WX    TMP DP  RH WIND       PRES   REMARKS
WILLISTON      CLEAR     81  54  39 N8        30.15S
DICKINSON      CLEAR     73  55  53 E8        30.13S
CROSBY         CLEAR     73  63  71 N7        30.17S
TIOGA          FAIR      73  59  62 N8        30.19S
WATFORD CITY   CLEAR     77  54  45 N9        30.13R
BISMARCK       PTCLDY    75  57  54 SE7       30.13F
GRAND FORKS    FAIR      73  57  57 N5        30.08F
FARGO          CLEAR     75  55  50 NE7       30.08F
BUFFALO SD     CLEAR     79  48  34 S5        30.10F
RAPID CITY     MOCLDY    72  54  53 SE5       30.21S
$$

REGIONAL REPORTS...WYOMING/IDAHO/WASHINGTON
CITY           SKY/WX    TMP DP  RH WIND       PRES   REMARKS
GILLETTE       MOCLDY    68  55  63 SW3       30.25S
SHERIDAN       CLOUDY    75  48  39 S7        30.21F
YELLOWSTONE LA CLOUDY    55  46  72 VRB7      30.45S
SALMON         CLOUDY    84  46  26 SW10      30.06F
MULLAN PASS    PTCLDY    81  39  22 VRB3      30.28S
SAND POINT     CLEAR     91  54  28 CALM      29.98F
SPOKANE        FAIR      99  37  12 VRB7      29.99F
$$

REGIONAL REPORTS...ALBERTA
CITY           SKY/WX    TMP DP  RH WIND       PRES   REMARKS
CALGARY        MOCLDY    86  46  25 S10G18    30.13S
LETHBRIDGE     PTCLDY    86  59  40 E8        30.11F HI  85
MEDICINE HAT   PTCLDY    93  37  14 NE8       30.07F
EDMONTON       MOCLDY    81  66  60 SE7       30.07S HI  83
WATERTON GATE  N/A       82  50  33 E1         N/A
CARDSTON       N/A       82  63  53 SE3        N/A   HI  83
MILK RIVER     N/A       88  37  16 E9         N/A
$$

REGIONAL REPORTS...SASKATCHEWAN
CITY           SKY/WX    TMP DP  RH WIND       PRES   REMARKS
SWIFT CURRENT  CLEAR     81  54  39 SE9       30.16S
REGINA         N/A       77  57  50 N5        30.17F
VAL MARIE      N/A       79  54  42 E9         N/A
ASSINIBOIA     N/A       77  57  50 NE6        N/A
CORONACH       N/A       77  54  45 N8         N/A

$$




USA.gov is the U.S. government's official web portal to all federal, state and local government web resources and services.